SL-19 R/B, 35501

Orbit data source: Space-Track

SL-19 R/B, 35501 is space debris in LEO originally from a launch on Mon, 06 Jul 2009 UTC launched from the Plesetsk Missile And Space Complex (PKMTR). Debris objects in space refer to the collection of defunct objects orbiting the Earth. Examples of debris include non-operational satellites, rocket bodies, and fragments generated from explosions, collisions, or faulty payload assembly.

Loading next visibility...
Identifier
35501, 2009-036D
Orbit
LEO
Country
Flag of CISCIS
Related business
Manufacturer
Khrunichev
Mission
Spacecraft
Bus & Motor
BRIZ, S5.92
Mass
2,370 kg wet, 2,370 kg dry
Launch date (UTC)
2009-07-06 (16 years ago)
Launch vehicle
Unknown
Launch site
Plesetsk Missile And Space Complex (PKMTR)
Object type
Payload
Rocket body
Debris
Shape & HBR
Hex Cyl + 1 Rod, 2.0 m
Radar Cross Section
10.190 m², Large (>1 m²)

Expand to show TLE details & history
Last TLE update: 19 hours ago

TLE from 19 hours ago
0 SL-19 R/B
1 35501U 09036D   25260.28732147  .00000007  00000-0 -16802-4 0  9990
2 35501  82.4980   9.6538 0195756 205.7562 181.0437 12.76647297754986
Epoch: 2025-09-17T06:53Z
TLE epoch observation values (Epoch: 2025-09-17T06:53:44.575Z)
Latitude
26.54464°
Longitude
-86.49379°
Altitude
1,509.466 km
Speed
7.042 km/s
True Right ascension
00h 53m 37s
True Declination
26° 25' 14"
Sunlit
Object was in full shadow at epoch
Visualization orbit readout
Latitude
Unknown
Longitude
Unknown
Altitude
Unknown
Speed
Unknown
Apparent Right ascension
Unknown
Apparent Declination
Unknown
Sunlit
N/A
Visualization observer readout
Local Sidereal Time
18:57:05
Azimuth
Unknown
Elevation
Unknown
Doppler factor
Unknown
Orbital elements
Apogee altitude
1,503.609 km
Perigee altitude
1,200.954 km
Semi-major axis
7,730.418 km
Eccentricity
0.01958
Inclination
82.498°
RAAN
9.6538°
Arg. of periapsis
205.7562°
True anomaly
181.00382°
Mean anomaly
181.0437°
Eccentric anomaly
181.02366°
Mean motion
3.19329 °/min
Orbital period
112.74 mins
BSTAR
-0.000016802
Loading maneuver chart data...
Computing Atmospheric mass density...
Loading historical data...
Loading historical data...
Loading historical data...
Loading historical data...
Loading historical data...
Loading historical data...
Loading historical data...
Other satellites on launch #36 in the year 2009 (2009-07-06 UTC)

Documentation

Showing up to 5 results
|